Point Lay, AK

12:51 PM AKDT on October 18, 2017 (GMT -0800)
Point Lay

Weather History for PPIZ - October, 2013

Change the Weather History Date:

Wednesday, October 16, 2013

  Actual Average Record
Temperature  
Mean Temperature 28 °F -  
Max Temperature 32 °F 19 °F 37 °F (2006)
Min Temperature 23 °F 11 °F -5 °F (1996)
Degree Days  
Heating Degree Days 37    
Moisture  
Dew Point 26 °F    
Average Humidity 93    
Maximum Humidity 100    
Minimum Humidity 86    
Precipitation  
Precipitation 0.07 in - - ()
Sea Level Pressure  
Sea Level Pressure 29.75 in    
Wind  
Wind Speed 1 mph (ENE)    
Max Wind Speed 9 mph    
Max Gust Speed -    
Visibility 9 miles    
Events Snow    
Averages and records for this station are not official NWS values.
T = Trace of Precipitation, MM = Missing Value Source: NWS Daily Summary

Daily Weather History Graph

Daily Weather History Graph

Search for Another Location

Airport or City:

Trip Planner

Search our weather history database for the weather conditions in past years. The results will help you decide how hot, cold, wet, or windy it might be!

Date:

Astronomy

Oct. 16, 2013 Rise Set
Actual Time 10:10 AM AKDT 7:03 PM AKDT
Civil Twilight 9:07 AM AKDT 8:05 PM AKDT
Nautical Twilight 7:57 AM AKDT 9:15 PM AKDT
Astronomical Twilight 6:45 AM AKDT 10:26 PM AKDT
Moon 6:33 PM AKDT (10/16) 6:51 AM AKDT (10/16)
Length of Visible Light 10h 58m
Length of Day
8h 53m
Waxing Gibbous, 95% of the Moon is Illuminated
Oct 16
Waxing Gibbous
Oct 18
Full
Oct 26
Last Quarter
Nov 3
New
Nov 9
First Quarter

Hourly Weather History & Observations

Time (AKDT) Temp. Windchill Dew Point Humidity Pressure Visibility Wind Dir Wind Speed Gust Speed Precip Events Conditions
12:56 AM 23.0 °F - 21.2 °F 93% 29.73 in 10.0 mi Calm Calm - N/A   Mostly Cloudy
1:40 AM 24.8 °F - 21.2 °F 86% 29.73 in 8.0 mi Calm Calm - N/A   Scattered Clouds
1:56 AM 24.1 °F - 22.1 °F 92% 29.75 in 10.0 mi Calm Calm - N/A   Partly Cloudy
2:33 AM 24.8 °F - 21.2 °F 86% 29.75 in 10.0 mi Calm Calm - N/A   Mostly Cloudy
2:36 AM 24.8 °F - 21.2 °F 86% 29.75 in 10.0 mi Calm Calm - N/A   Mostly Cloudy
2:56 AM 24.1 °F - 23.0 °F 96% 29.77 in 10.0 mi Calm Calm - N/A   Mostly Cloudy
3:49 AM 24.8 °F - 23.0 °F 93% 29.76 in 10.0 mi Calm Calm - N/A   Mostly Cloudy
3:56 AM 25.2 °F - 23.0 °F 91% 29.78 in 10.0 mi Calm Calm - N/A   Scattered Clouds
4:56 AM 24.1 °F - 22.1 °F 92% 29.78 in 10.0 mi Calm Calm - 0.00 in   Scattered Clouds
5:56 AM 24.1 °F - 23.0 °F 96% 29.79 in 10.0 mi Calm Calm - N/A   Scattered Clouds
6:22 AM 24.8 °F - 23.0 °F 93% 29.78 in 10.0 mi Calm Calm - N/A   Scattered Clouds
6:39 AM 24.8 °F - 23.0 °F 93% 29.79 in 10.0 mi Calm Calm - N/A   Mostly Cloudy
6:56 AM 25.2 °F - 23.0 °F 91% 29.81 in 10.0 mi Calm Calm - N/A   Mostly Cloudy
7:40 AM 24.8 °F - 24.8 °F 100% 29.79 in 10.0 mi Calm Calm - N/A   Mostly Cloudy
7:56 AM 25.2 °F - 24.1 °F 96% 29.80 in 10.0 mi Calm Calm - N/A   Mostly Cloudy
8:56 AM 25.2 °F - 24.1 °F 96% 29.80 in 10.0 mi Calm Calm - N/A   Mostly Cloudy
9:23 AM 26.6 °F - 24.8 °F 93% 29.79 in 10.0 mi Calm Calm - N/A   Scattered Clouds
9:56 AM 26.6 °F 20.0 °F 24.8 °F 93% 29.79 in 10.0 mi ENE 5.8 mph - N/A   Mostly Cloudy
10:56 AM 26.1 °F - 24.1 °F 92% 29.80 in 9.0 mi Calm Calm - 0.00 in Snow Light Snow
11:56 AM 26.1 °F 21.9 °F 24.1 °F 92% 29.80 in 8.0 mi ENE 3.5 mph - 0.00 in Snow Light Snow
12:56 PM 26.6 °F - 24.8 °F 93% 29.79 in 7.0 mi Calm Calm - N/A Snow Light Snow
1:33 PM 26.6 °F - 24.8 °F 93% 29.78 in 5.0 mi Calm Calm - 0.00 in Snow Light Snow
1:56 PM 27.1 °F - 25.2 °F 92% 29.79 in 6.0 mi Calm Calm - 0.01 in   Mostly Cloudy
2:56 PM 28.0 °F - 26.1 °F 92% 29.77 in 6.0 mi Calm Calm - 0.02 in   Mostly Cloudy
3:56 PM 28.0 °F - 26.1 °F 92% 29.75 in 10.0 mi Calm Calm - 0.01 in   Partly Cloudy
4:56 PM 29.1 °F - 27.1 °F 92% 29.73 in 10.0 mi Calm Calm - N/A   Clear
5:56 PM 31.1 °F 23.1 °F 29.1 °F 92% 29.72 in 10.0 mi East 9.2 mph - 0.00 in   Scattered Clouds
6:31 PM 32.0 °F 24.8 °F 30.2 °F 93% 29.70 in 4.0 mi East 8.1 mph - 0.01 in   Mostly Cloudy
6:56 PM 33.8 °F 28.6 °F 32.0 °F 93% 29.70 in 8.0 mi East 5.8 mph - N/A   Mostly Cloudy
7:03 PM 33.8 °F 27.7 °F 32.0 °F 93% 29.70 in 10.0 mi East 6.9 mph - 0.00 in   Scattered Clouds
7:56 PM 32.9 °F 25.3 °F 32.0 °F 96% 29.70 in 9.0 mi East 9.2 mph - 0.02 in   Overcast
8:56 PM 32.9 °F 25.9 °F 32.0 °F 96% 29.69 in 10.0 mi ENE 8.1 mph - 0.01 in   Scattered Clouds
9:56 PM 32.9 °F 27.5 °F 32.0 °F 96% 29.68 in 10.0 mi ENE 5.8 mph - 0.00 in   Partly Cloudy
10:56 PM 32.9 °F 27.5 °F 32.0 °F 96% 29.68 in 10.0 mi ENE 5.8 mph - 0.00 in   Partly Cloudy
11:28 PM 33.8 °F 28.6 °F 32.0 °F 93% 29.66 in 10.0 mi ENE 5.8 mph - 0.00 in   Mostly Cloudy
11:45 PM 33.8 °F 29.6 °F 32.0 °F 93% 29.66 in 10.0 mi East 4.6 mph - 0.00 in   Scattered Clouds
11:56 PM 32.9 °F 28.5 °F 32.0 °F 96% 29.67 in 10.0 mi ENE 4.6 mph - 0.00 in   Partly Cloudy